YD2CLX-13 Weather Reports


time (UTC)temp
F
wind
direction
speed
knots
gust
knots
rain 1hr
in
rain 24hr
in
rain mn
in
humidity
%
barometer
mb
20260505223821 42 92 17.4 43.4 0.00 0.00 0.00 68 797.0
20260505222812 42 92 17.4 43.4 0.00 0.00 0.00 67 796.9
20260505221805 42 92 17.4 43.4 0.00 0.00 0.00 68 796.9
20260505220754 43 92 17.4 43.4 0.00 0.00 0.00 68 796.9
20260505215743 43 92 17.4 43.4 0.00 0.00 0.00 69 796.8
20260505214735 43 92 17.4 43.4 0.00 0.00 0.00 69 796.7
20260505212720 44 92 17.4 43.4 0.00 0.00 0.00 69 796.7
20260505211709 44 92 17.4 43.4 0.00 0.00 0.00 69 796.6
20260505210659 47 92 17.4 43.4 0.00 0.00 0.00 69 796.7
20260505205650 47 92 17.4 43.4 0.00 0.00 0.00 69 796.7
20260505204642 47 92 17.4 43.4 0.00 0.00 0.00 69 796.8
20260505202625 48 92 17.4 43.4 0.00 0.00 0.00 69 796.9
20260505201617 44 92 17.4 43.4 0.00 0.00 0.00 68 796.7
20260505195602 45 92 17.4 43.4 0.00 0.00 0.00 69 796.9
20260505192531 47 92 17.4 43.4 0.00 0.00 0.00 69 796.9
20260505191520 48 92 17.4 43.4 0.00 0.00 0.00 69 796.9
20260505190512 48 92 17.4 43.4 0.00 0.00 0.00 69 797.1
20260505185504 48 92 17.4 43.4 0.00 0.00 0.00 68 797.1
20260505184456 46 92 17.4 43.4 0.00 0.00 0.00 68 797.2
20260505183447 45 92 17.4 43.4 0.00 0.00 0.00 68 797.4
20260505182439 45 92 17.4 43.4 0.00 0.00 0.00 67 797.6
20260505180421 46 92 17.4 43.4 0.00 0.00 0.00 68 797.5
20260505175413 46 92 17.4 43.4 0.00 0.00 0.00 67 797.5
20260505174404 45 92 17.4 43.4 0.00 0.00 0.00 68 797.7
20260505171335 46 92 17.4 43.4 0.00 0.00 0.00 67 798.0
20260505170327 46 92 17.4 43.4 0.00 0.00 0.00 67 798.1
20260505165317 46 92 17.4 43.4 0.00 0.00 0.00 67 798.1
20260505164309 46 92 17.4 43.4 0.00 0.00 0.00 67 798.2
20260505163300 47 92 17.4 43.4 0.00 0.00 0.00 67 798.3
20260505162251 47 92 17.4 43.4 0.00 0.00 0.00 67 798.4
20260505161242 47 92 17.4 43.4 0.00 0.00 0.00 67 798.4
20260505160234 47 92 17.4 43.4 0.00 0.00 0.00 66 798.5
20260505153153 49 92 17.4 43.4 0.00 0.00 0.00 67 798.6
20260505152137 49 92 17.4 43.4 0.00 0.00 0.00 67 798.4
20260505151120 49 92 17.4 43.4 0.00 0.00 0.00 67 798.4
20260505150105 50 92 17.4 43.4 0.00 0.00 0.00 67 798.3
20260505124731 51 92 17.4 43.4 0.00 0.00 0.00 67 798.1
20260505122701 51 92 17.4 43.4 0.00 0.00 0.00 67 798.0
20260505121645 51 92 17.4 43.4 0.00 0.00 0.00 68 798.0
20260505120630 51 92 17.4 43.4 0.00 0.00 0.00 68 798.0
20260505115617 51 92 17.4 43.4 0.00 0.00 0.00 68 797.6
20260505114601 51 92 17.4 43.4 0.00 0.00 0.00 68 797.7
20260505113544 51 92 17.4 43.4 0.00 0.00 0.00 68 797.4
20260505111514 51 92 17.4 43.4 0.00 0.00 0.00 68 797.4
20260505110458 51 92 17.4 43.4 0.00 0.00 0.00 67 797.2
20260505101341 52 92 17.4 43.4 0.00 0.00 0.00 67 796.8
20260505100324 53 92 17.4 43.4 0.00 0.00 0.00 67 796.8
20260505095312 53 92 17.4 43.4 0.00 0.00 0.00 67 796.7
20260505094303 53 92 17.4 43.4 0.00 0.00 0.00 67 796.7
20260505093256 53 92 17.4 43.4 0.00 0.00 0.00 67 796.7
20260505091239 54 92 17.4 43.4 0.00 0.00 0.00 67 796.4
20260505090230 55 92 17.4 43.4 0.00 0.00 0.00 66 796.4
20260505085222 54 92 17.4 43.4 0.00 0.00 0.00 66 796.2
20260505084212 54 92 17.4 43.4 0.00 0.00 0.00 66 796.3
20260505083204 54 92 17.4 43.4 0.00 0.00 0.00 66 796.2
20260505082156 55 92 17.4 43.4 0.00 0.00 0.00 65 796.2
20260505081147 55 92 17.4 43.4 0.00 0.00 0.00 65 796.3
20260505080138 56 92 17.4 43.4 0.00 0.00 0.00 65 796.3
20260505075130 57 92 17.4 43.4 0.00 0.00 0.00 64 796.0
20260505074119 58 92 17.4 43.4 0.00 0.00 0.00 64 796.2
20260505073111 59 92 17.4 43.4 0.00 0.00 0.00 65 796.1
20260505072103 60 92 17.4 43.4 0.00 0.00 0.00 65 796.1
20260505071055 59 92 17.4 43.4 0.00 0.00 0.00 65 796.3
20260505070046 57 92 17.4 43.4 0.00 0.00 0.00 65 796.3
20260505065037 59 92 17.4 43.4 0.00 0.00 0.00 65 796.4
20260505064028 59 92 17.4 43.4 0.00 0.00 0.00 65 796.5
20260505063020 61 92 17.4 43.4 0.00 0.00 0.00 65 796.5
20260505062013 57 92 17.4 43.4 0.00 0.00 0.00 64 796.8
20260505053934 59 92 17.4 43.4 0.00 0.00 0.00 66 797.1
20260505052927 58 92 17.4 43.4 0.00 0.00 0.00 66 797.2
20260505051919 58 92 17.4 43.4 0.00 0.00 0.00 66 797.3
20260505040819 58 92 17.4 43.4 0.00 0.00 0.00 67 798.1
20260505035810 58 92 17.4 43.4 0.00 0.00 0.00 68 798.1
20260505034801 58 92 17.4 43.4 0.00 0.00 0.00 68 798.3
20260505033751 59 92 17.4 43.4 0.00 0.00 0.00 68 798.3
20260505032741 59 92 17.4 43.4 0.00 0.00 0.00 69 798.3
20260505031732 57 92 17.4 43.4 0.00 0.00 0.00 68 798.4
20260505030720 57 92 17.4 43.4 0.00 0.00 0.00 68 798.3
20260505025711 59 92 17.4 43.4 0.00 0.00 0.00 69 798.3
20260505024657 56 92 17.4 43.4 0.00 0.00 0.00 68 798.3
20260505022627 56 92 17.4 43.4 0.00 0.00 0.00 68 798.4
20260505021611 58 92 17.4 43.4 0.00 0.00 0.00 68 798.4
20260505014524 58 92 17.4 43.4 0.00 0.00 0.00 69 798.4
20260505013509 58 92 17.4 43.4 0.00 0.00 0.00 70 798.3
20260505012453 58 92 17.4 43.4 0.00 0.00 0.00 69 798.2
20260505011438 56 92 17.4 43.4 0.00 0.00 0.00 69 798.2
20260505010424 58 92 17.4 43.4 0.00 0.00 0.00 69 798.0
20260505004355 58 92 17.4 43.4 0.00 0.00 0.00 69 797.9
20260505002324 65 92 17.4 43.4 0.00 0.00 0.00 69 797.6
20260505001309 66 92 17.4 43.4 0.00 0.00 0.00 69 797.5
20260505000253 59 92 17.4 43.4 0.00 0.00 0.00 69 797.4
20260504235237 56 92 17.4 43.4 0.00 0.00 0.00 71 797.4
20260504234223 48 92 17.4 43.4 0.00 0.00 0.00 69 797.4
20260504233207 47 92 17.4 43.4 0.00 0.00 0.00 70 797.3
20260504232151 46 92 17.4 43.4 0.00 0.00 0.00 69 797.2
20260504231137 45 92 17.4 43.4 0.00 0.00 0.00 71 797.2
20260504230122 45 92 17.4 43.4 0.00 0.00 0.00 70 797.1
20260504225107 44 92 17.4 43.4 0.00 0.00 0.00 70 797.0